Location: St. Louis
(38.6270°N, 90.1994°W)
Time: 20:39:04
(UTC-06:00)

Vanguard 3 - Pass Details

Date: 08 December 2021
Orbit: 508 x 3260 km, 33.3° (Epoch: 19 January)

Event Time Altitude Azimuth Distance (km) Brightness Sun altitude
Exits shadow 02:00:35 50° 124° (SE) 3,821 10.3 -58.5°
Drops below altitude 10° 02:15:24 10° 83° (E) 5,882 11.9 -55.8°
Sets 02:19:38 0° 80° (E) 6,678 12.4 -55.0°
